Amateur radio
NORAD ID: 2655
Int'l Code: 1967-003H
Perigee: 33,672.8 km
Apogee: 34,226.0 km
Inclination: 1.2 °
Period: 1,342.9 minutes
Semi major axis: 40320 km
Launch date: January 18, 1967
Source: United States (US)
Two Line Element Set (TLE):
1 02655U 67003H 13137.16639626 -.00000083 00000-0 10000-3 0 175
2 02655 001.1648 320.4668 0068611 031.4803 329.7053 01.07229859 87737
Source:
NASA's NSSDC Master Catalog entry for OPS 9328 (IDSCS 15)